Regional Weather Roundup
Issued by NWS Kansas City/Pleasant Hill, MO

Home | Current Version | Previous Version | Graphics & Text | Print | Product List | Glossary Off
Versions: 1 2 3 4 5 6 7 8 9 10 11 12 13 14 15 16 17 18 19 20 21 22 23 24 25 26 27 28 29 30 31 32 33 34 35 36 37 38 39 40 41 42 43 44 45 46 47 48 49 50

000
ASUS43 KEAX 230510
RWREAX

WEATHER ROUNDUP FOR EASTERN KANSAS AND NORTHWEST MISSOURI
NATIONAL WEATHER SERVICE KANSAS CITY/PLEASANT HILL MO
1100 PM CST WED FEB 22 2017

KSZ040-057-103>105-MOZ028-029-037-043-230600-
...KANSAS CITY METROPOLITAN AREA...

CITY           SKY/WX    TMP DP  RH WIND       PRES   REMARKS
K.C. INTL      CLEAR     56  38  50 NE9       29.71R
K.C. DOWNTOWN  CLEAR     52  37  56 CALM      29.71R
LEES SUMMIT    CLEAR     61  36  39 N5        29.71R
OLATHE - IXD   CLEAR     49  36  61 CALM      29.72R
OLATHE - OJC   CLEAR     56  36  47 N3        29.71R
LAWRENCE       CLEAR     40  34  79 W3        29.71R

$$

MOZ001>008-011>017-020>025-030>033-038>040-044>046-053-054-230600-
...NORTHERN AND CENTRAL MISSOURI...

CITY           SKY/WX    TMP DP  RH WIND       PRES   REMARKS
ST. JOSEPH     CLEAR     51  39  63 N10       29.73R
WARRENSBURG    PTCLDY    61  39  44 W9        29.68S
WHITEMAN AFB   PTCLDY    52  44  74 S10       29.68S
CLINTON        CLEAR     50  41  71 CALM      29.71S
SEDALIA        CLEAR     61  52  72 S8        29.71R
WARSAW         NOT AVBL
CHILLICOTHE      N/A     58  39  49 NE6       29.73R
KIRKSVILLE     PTCLDY    46  41  82 N3        29.73R

$$

MOZ041-047>049-056>058-063>065-088>090-097-230600-
...EASTERN AND SOUTHERN MISSOURI...

CITY           SKY/WX    TMP DP  RH WIND       PRES   REMARKS
ST. LOUIS INTL MOCLDY    63  53  70 SW12      29.73R
SPIRIT OF STL  MOCLDY    60  55  83 SW6       29.72R
COLUMBIA       CLOUDY    55  52  89 S7        29.71R
JEFFERSON CITY PTCLDY    59  53  80 E3        29.71R
ROLLA          PTCLDY    56  54  93 S15       29.73S
OSAGE BEACH    CLEAR     59  54  83 S8        29.73S
SPRINGFIELD    CLEAR     58  54  86 S13       29.73S
BRANSON        CLEAR     59  55  88 S7        29.77S
JOPLIN         CLEAR     59  48  67 S10       29.70F
WEST PLAINS    CLEAR     54  53  97 S5        29.80S

$$

IAZ060-094-KSZ022-034>040-054-083-096-NEZ052-066-093-230600-
...KANSAS...SOUTHEAST NEBRASKA AND IOWA...

CITY           SKY/WX    TMP DP  RH WIND       PRES   REMARKS
TOPEKA         CLEAR     53  39  59 NE6       29.71R
MANHATTAN      CLOUDY    55  38  52 NE12      29.72R
EMPORIA        PTCLDY    50  41  71 S3        29.68S
CHANUTE        PTCLDY    48  40  73 E3        29.69F
WICHITA        PTCLDY    55  46  71 E5        29.67F
OMAHA          CLEAR     43  36  76 N7        29.80R
LINCOLN        CLEAR     43  35  73 N10       29.78F
FALLS CITY     CLEAR     54  37  52 N12G18    29.74R
LAMONI         CLEAR     51  39  63 N10       29.74R
DES MOINES     CLEAR     51  43  74 N10       29.77R

$$




USA.gov is the U.S. government's official web portal to all federal, state and local government web resources and services.